WX2DX-2 Weather Reports


Display with metric or nautical units.
time (UTC)temp
F
wind
direction
speed
MPH
gust
MPH
rain 1hr
in
rain 24hr
in
rain mn
in
humidity
%
barometer
mb
20260506023018 59 238 0.0 1.0 0.00 0.05 0.05 77 1006.5
20260506021516 60 238 0.0 2.0 0.00 0.05 0.05 74 1006.4
20260506020013 61 292 0.0 1.0 0.00 0.05 0.05 72 1006.4
20260506014513 62 292 0.0 1.0 0.00 0.05 0.05 70 1006.3
20260506013014 64 175 0.0 3.0 0.00 0.05 0.05 66 1006.2
20260506011511 65 193 1.0 3.0 0.00 0.05 0.05 62 1006.0
20260506010013 67 238 0.0 3.0 0.00 0.05 0.05 61 1005.9
20260506004512 68 175 3.0 5.0 0.00 0.05 0.05 58 1006.0
20260506003013 68 242 1.0 6.0 0.00 0.05 0.05 57 1005.8
20260506001509 69 245 3.0 11.0 0.00 0.05 0.05 56 1005.7
20260506000009 69 260 2.0 8.0 0.00 0.05 0.05 56 1005.6
20260505234508 70 254 4.0 10.0 0.00 0.05 0.05 56 1005.7
20260505233008 70 245 4.0 10.0 0.00 0.05 0.05 56 1005.5
20260505231509 70 210 3.0 9.0 0.00 0.05 0.05 55 1005.5
20260505230011 71 211 3.0 12.0 0.00 0.05 0.05 54 1005.4
20260505224508 71 231 5.0 10.0 0.00 0.05 0.05 53 1005.6
20260505223006 71 238 5.0 15.0 0.00 0.05 0.05 55 1005.7
20260505221505 71 280 7.0 17.0 0.00 0.05 0.05 56 1005.7
20260505220004 71 269 6.0 15.0 0.00 0.05 0.05 56 1005.7
20260505214504 71 251 7.0 14.0 0.00 0.05 0.05 55 1005.6
20260505213004 71 275 5.0 15.0 0.01 0.05 0.05 56 1005.5
20260505211504 70 276 2.0 12.0 0.01 0.05 0.05 60 1005.6
20260505210059 70 298 6.0 12.0 0.01 0.05 0.05 59 1005.4
20260505204558 70 288 7.0 15.0 0.01 0.05 0.05 60 1005.5
20260505203120 73 269 4.0 14.0 0.00 0.04 0.04 57 1005.5
20260505201603 74 224 8.0 15.0 0.00 0.04 0.04 45 1004.9
20260505200058 75 242 7.0 12.0 0.00 0.04 0.04 47 1005.0
20260505194556 73 281 6.0 11.0 0.00 0.04 0.04 48 1005.3
20260505193054 73 248 4.0 11.0 0.00 0.04 0.04 50 1005.4
20260505191605 74 242 6.0 19.0 0.00 0.04 0.04 44 1005.5
20260505190054 74 217 8.0 21.0 0.00 0.04 0.04 43 1005.5
20260505184553 74 198 8.0 22.0 0.00 0.04 0.04 42 1005.2
20260505183052 76 209 9.0 22.0 0.00 0.04 0.04 43 1005.0
20260505181550 77 235 10.0 20.0 0.00 0.04 0.04 42 1005.1
20260505180051 76 214 6.0 20.0 0.00 0.04 0.04 43 1005.5
20260505174547 76 211 7.0 22.0 0.00 0.04 0.04 45 1005.6
20260505173041 75 230 9.0 23.0 0.00 0.04 0.04 42 1005.8
20260505171544 75 242 8.0 18.0 0.00 0.04 0.04 45 1006.0
20260505170052 74 227 12.0 23.0 0.00 0.04 0.04 46 1006.1
20260505164536 74 256 13.0 21.0 0.00 0.04 0.04 44 1006.2
20260505163036 72 238 9.0 22.0 0.00 0.04 0.04 50 1006.2
20260505161533 73 232 12.0 22.0 0.00 0.04 0.04 47 1006.4
20260505153027 72 209 9.0 18.0 0.00 0.04 0.04 53 1007.2
20260505151525 70 202 9.0 21.0 0.00 0.04 0.04 54 1007.2
20260505124603 63 196 4.0 9.0 0.00 0.04 0.04 76 1007.3
20260505123055 61 240 3.0 5.0 0.00 0.04 0.04 82 1007.4
20260505121611 59 241 2.0 5.0 0.00 0.04 0.04 85 1007.6
20260505120048 57 240 1.0 5.0 0.00 0.04 0.04 87 1007.7
20260505114550 56 238 2.0 5.0 0.01 0.04 0.04 89 1007.9
20260505113048 54 257 0.0 2.0 0.02 0.04 0.04 92 1007.7
20260505111546 53 284 0.0 2.0 0.02 0.04 0.04 92 1007.5
20260505101540 51 234 1.0 2.0 0.00 0.02 0.02 93 1007.0
20260505100036 51 300 0.0 3.0 0.00 0.02 0.02 92 1007.1
20260505094537 51 184 0.0 2.0 0.00 0.02 0.02 91 1006.8
20260505093040 51 184 0.0 4.0 0.00 0.02 0.02 92 1007.0
20260505091534 51 171 1.0 5.0 0.00 0.02 0.02 92 1007.0
20260505090048 51 171 0.0 2.0 0.00 0.02 0.02 92 1007.1
20260505084529 51 171 0.0 1.0 0.00 0.02 0.02 91 1006.9
20260505083029 52 171 0.0 1.0 0.01 0.02 0.02 92 1006.6
20260505081530 52 171 0.0 2.0 0.02 0.02 0.02 90 1006.6
20260505080028 53 171 0.0 2.0 0.02 0.02 0.02 87 1006.8
20260505074523 54 165 1.0 5.0 0.02 0.02 0.02 85 1006.7
20260505073020 53 290 0.0 3.0 0.01 0.01 0.01 84 1006.9
20260505071520 53 248 1.0 4.0 0.00 0.00 0.00 83 1006.5
20260505070020 53 236 0.0 2.0 0.00 0.00 0.00 83 1006.4
20260505064517 53 236 0.0 2.0 0.00 0.00 0.00 81 1006.5
20260505063016 55 230 0.0 3.0 0.00 0.00 0.00 78 1006.7
20260505061515 55 215 1.0 4.0 0.00 0.00 0.00 80 1006.8
20260505060025 53 248 0.0 3.0 0.00 0.00 0.00 83 1006.7
20260505054520 53 259 0.0 3.0 0.00 0.00 0.00 83 1006.8
20260505053008 53 274 0.0 3.0 0.00 0.00 0.00 83 1007.0
20260505051506 55 229 0.0 2.0 0.00 0.00 0.00 82 1007.1
20260505041559 55 229 0.0 1.0 0.00 0.00 0.00 81 1007.1
20260505040056 56 229 0.0 1.0 0.00 0.00 0.00 78 1007.1
20260505034555 56 200 1.0 3.0 0.00 0.00 0.00 80 1007.1
20260505033112 55 265 1.0 2.0 0.00 0.00 0.00 82 1007.0
20260505031556 55 265 0.0 1.0 0.00 0.00 0.00 81 1007.0
20260505030054 56 298 0.0 0.0 0.00 0.00 0.00 81 1007.0
20260505024558 57 298 0.0 0.0 0.00 0.00 0.00 80 1007.0